TimePST,TemperatureF,Dew PointF,Humidity,Sea Level PressureIn,VisibilityMPH,Wind Direction,Wind SpeedMPH,Gust SpeedMPH,PrecipitationIn,Events,Conditions,WindDirDegrees,DateUTC
12:50 AM,47.3,35.8,64,30.19,15.0,West,11.5,-,N/A,,Mostly Cloudy,260,2013-02-13 08:50:00
1:50 AM,49.5,36.3,61,30.18,15.0,SW,19.6,27.6,N/A,,Scattered Clouds,230,2013-02-13 09:50:00
2:50 AM,48.0,35.4,62,30.19,15.0,West,10.4,-,N/A,,Mostly Cloudy,270,2013-02-13 10:50:00
3:50 AM,48.6,35.4,60,30.19,15.0,WSW,18.4,26.5,N/A,,Overcast,240,2013-02-13 11:50:00
4:50 AM,46.4,34.7,64,30.19,15.0,WSW,16.1,-,N/A,,Overcast,240,2013-02-13 12:50:00
5:50 AM,46.0,34.0,63,30.22,15.0,WSW,8.1,-,N/A,,Overcast,250,2013-02-13 13:50:00
6:50 AM,45.0,33.1,63,30.22,15.0,West,11.5,-,N/A,,Overcast,260,2013-02-13 14:50:00
7:50 AM,42.8,33.6,70,30.24,15.0,NW,8.1,-,N/A,,Mostly Cloudy,310,2013-02-13 15:50:00
8:50 AM,46.9,33.3,59,30.25,15.0,NNE,8.1,-,N/A,,Overcast,20,2013-02-13 16:50:00
9:50 AM,48.4,33.3,56,30.29,15.0,West,11.5,-,N/A,,Mostly Cloudy,280,2013-02-13 17:50:00
10:50 AM,50.5,32.7,51,30.28,15.0,WNW,12.7,-,N/A,,Overcast,290,2013-02-13 18:50:00
11:50 AM,50.5,32.4,50,30.28,15.0,WNW,11.5,-,N/A,,Overcast,300,2013-02-13 19:50:00
12:50 PM,50.7,31.5,48,30.28,15.0,WNW,11.5,-,N/A,,Overcast,290,2013-02-13 20:50:00
1:50 PM,50.7,31.5,48,30.28,15.0,WNW,11.5,-,N/A,,Overcast,290,2013-02-13 21:50:00
2:50 PM,51.6,30.7,45,30.28,15.0,WNW,13.8,-,N/A,,Overcast,300,2013-02-13 22:50:00
3:50 PM,51.4,29.8,44,30.27,15.0,NW,9.2,-,N/A,,Overcast,320,2013-02-13 23:50:00
4:50 PM,50.4,29.5,45,30.27,15.0,NW,9.2,-,N/A,,Mostly Cloudy,320,2013-02-14 00:50:00
5:50 PM,47.1,26.1,44,30.29,15.0,NW,15.0,-,N/A,,Partly Cloudy,310,2013-02-14 01:50:00
6:50 PM,48.2,26.6,43,30.31,15.0,WNW,18.4,27.6,N/A,,Clear,290,2013-02-14 02:50:00
10:50 PM,43.5,27.3,53,30.37,15.0,West,10.4,-,N/A,,Clear,280,2013-02-14 06:50:00
11:50 PM,39.4,27.0,61,30.39,15.0,West,11.5,-,N/A,,Clear,260,2013-02-14 07:50:00